Regional Weather Roundup
Issued by NWS

Home | Current Version | Previous Version | Text Only | Print | Product List | Glossary Off
Versions: 1 2 3 4 5 6 7 8 9 10 11 12 13 14 15 16 17 18 19 20 21 22 23 24 25 26 27 28 29 30 31 32 33 34 35 36 37 38 39 40 41 42 43 44 45 46 47 48 49 50

000
ASUS43 KIND 250709
RWRIN

WEATHER ROUNDUP FOR INDIANA
NATIONAL WEATHER SERVICE INDIANAPOLIS IN
200 AM EST SUN FEB 25 2018

NOTE: "FAIR" INDICATES FEW OR NO CLOUDS BELOW 12,000 FEET WITH NO
SIGNIFICANT WEATHER AND/OR OBSTRUCTIONS TO VISIBILITY.

* - STATION DOES NOT REPORT WEATHER SUCH AS PRECIPITATION OR FOG.

+ - STATION NOT QUALITY CONTROLLED BY THE NATIONAL WEATHER SERVICE.
    USE DATA WITH CAUTION...ESPECIALLY DEWPOINT AND RELATIVE
    HUMIDITY OBSERVATIONS.

INZ001>003-010>013-019-020-250800-
NORTHWEST INDIANA

CITY           SKY/WX    TMP DP  RH WIND       PRES   REMARKS
GARY /AIRPORT/ CLOUDY    50  49  96 W29G39    29.52R
LA PORTE +     RAIN      49  49  99 S13       29.47F
MICHIGAN CITY+ RAIN      48  48 100 S13G20    29.47R
MONTICELLO +   CLOUDY    51  49  93 W33G45    29.59R
RENSSELAER +   CLOUDY    50  43  76 W23G38    29.57R
VALPARAISO     CLOUDY    53  49  86 W30G54    29.51R

$$

LMZ046-743>745-250800-
SOUTHERN LAKE MICHIGAN

STATION/POSITION TIME  TEMP    WIND        PRES    WAVE
                       AIR SEA DIR/SP/G            HT
                 (UTC) (F)     (DEG/KT/KT) (MB)    (FT)
BURNS HARBOR     0640   49     180/ 15/ 23  998.6R
MICHIGAN CITY    0640   48     160/ 15/ 21   N/A

$$

INZ004-005-014>016-021>024-250800-
NORTH CENTRAL INDIANA

CITY           SKY/WX    TMP DP  RH WIND       PRES   REMARKS
GOSHEN         CLOUDY    46  45  96 SE14      29.49F FOG
LOGANSPORT +   RAIN      54  54 100 SW23G32   29.56R
PERU/GRISSOM   DRIZZLE   55  55 100 S18G26    29.54S FOG
ROCHESTER +    LGT RAIN  54  54 100 S15       29.52S
SOUTH BEND     LGT RAIN  46  45  96 SE18G28   29.48F FOG
WARSAW +       DRIZZLE   46  46 100 N6        29.51F

$$

INZ006>009-017-018-025>027-250800-
NORTHEAST INDIANA

CITY           SKY/WX    TMP DP  RH WIND       PRES   REMARKS
AUBURN +       CLOUDY    45  45 100 SE3       29.55F FOG
FORT WAYNE     DRIZZLE   55  53  93 S21G29    29.55F
HUNTINGTON +   CLOUDY    54  53  96 S13G18    29.54F FOG
KENDALLVILLE + FOG       43  43 100 SE12      29.53F VSB 3/4

$$

INZ028-029-035-036-043>045-051>053-250800-
WEST CENTRAL INDIANA

CITY           SKY/WX    TMP DP  RH WIND       PRES   REMARKS
CRAWFORDSVL +  CLOUDY    48  47  97 W25G45      N/A
GREENCASTLE +  CLOUDY    54  50  87 W15G31    29.68R
LAFAYETTE      CLOUDY    49  45  86 W23G46    29.62R
TERRE HAUTE    LGT RAIN  51  47  86 W18G32    29.72R

$$

INZ030>032-037>040-046>048-054>057-064-065-250800-
CENTRAL INDIANA

CITY           SKY/WX    TMP DP  RH WIND       PRES   REMARKS
FRANKFORT +    DRIZZLE   58  55  91 W37G46    29.63R
GREENWOOD *+   CLOUDY    55 -38   2 S18       29.65R
INDIANAPOLIS   CLOUDY    57  56  96 SW20      29.64R
-EAGLE CREEK   LGT RAIN  58  55  90 SW16G25   29.62R
KOKOMO +       LGT RAIN  56  55  97 S25       29.57S FOG
MARION +       CLOUDY    55  55  99 SW24G30   29.58S FOG
MT COMFORT *+  CLOUDY    54  54 100 S14G21    29.63S
SHELBYVILLE    LGT RAIN  56  54  93 SW16      29.65R
ZIONSVILLE +   HVY RAIN  55  55 100 SW23      29.61R

$$

INZ033-034-041-042-049-050-058-059-250800-
EAST CENTRAL INDIANA

CITY           SKY/WX    TMP DP  RH WIND       PRES   REMARKS
MUNCIE         CLOUDY    58  53  84 SW16G22   29.60R
RICHMOND +     CLOUDY    50  50 100 S20G26    29.66S

$$

INZ060-061-067>069-081>083-085>088-250800-
SOUTHWEST INDIANA

CITY           SKY/WX    TMP DP  RH WIND       PRES   REMARKS
EVANSVILLE     MOCLDY    60  54  80 W15       29.77R
HUNTINGBURG +  CLOUDY    61  56  83 W25G33    29.75R
WASHINGTON +   CLOUDY    58  49  74 W21G28    29.74R

$$

INZ062-063-066-070>080-084-089>092-250800-
SOUTH CENTRAL AND SOUTHEAST INDIANA

CITY           SKY/WX    TMP DP  RH WIND       PRES   REMARKS
BATESVILLE +   CLOUDY    55  55 100 MISG      29.67R FOG
BEDFORD +      CLOUDY    59  55  88 SW16G28   29.69R
BLOOMINGTON    CLOUDY    59  55  87 W21G30    29.68R
FRENCH LICK *+ CLOUDY    59 N/A N/A W17G30    29.74R
MADISON *+     CLOUDY    59  55  88 S14G23    29.72F
NORTH VERNON + DRIZZLE   57  55  94 S14G22    29.68F
SEYMOUR +      CLOUDY    59  59 100 SW15      29.69R

$$





USA.gov is the U.S. government's official web portal to all federal, state and local government web resources and services.